Regional Weather Roundup
Issued by NWS

Home | Current Version | Previous Version | Graphics & Text | Print | Product List | Glossary On
Versions: 1 2 3 4 5 6 7 8 9 10 11 12 13 14 15 16 17 18 19 20 21 22 23 24 25 26 27 28 29 30 31 32 33 34 35 36 37 38 39 40 41 42 43 44 45 46 47 48 49 50
000
ASUS45 KBOI 300610
RWRID

IDAHO REGIONAL WEATHER ROUNDUP
NATIONAL WEATHER SERVICE BOISE ID
1200 AM MDT SUN AUG 30 2015

NOTE: "FAIR" INDICATES FEW OR NO CLOUDS BELOW 12000 FEET
WITH NO SIGNIFICANT WEATHER AND/OR OBSTRUCTIONS TO VISIBILITY

IDZ012-014-300700-
SOUTHWEST IDAHO


CITY           SKY/WX    TMP DP  RH WIND       PRES   REMARKS
BOISE          LGT RAIN  75  51  43 CALM      29.85R
CALDWELL       CLOUDY    66  45  45 S7        29.84R
MOUNTAIN HOME  LGT RAIN  77  49  38 N10       29.84R
$$

IDZ016-017-300700-
SOUTHCENTRAL IDAHO


CITY           SKY/WX    TMP DP  RH WIND       PRES   REMARKS
BURLEY         CLOUDY    61  57  87 SW5       29.88R
JEROME         MOCLDY    68  45  43 NW6       29.88S
TWIN FALLS     MOCLDY    75  38  26 SW8       29.89R
$$

IDZ019>023-300700-
SOUTHEAST IDAHO


CITY           SKY/WX    TMP DP  RH WIND       PRES   REMARKS
IDAHO FALLS    CLOUDY    63  56  78 E12       29.95F
POCATELLO      CLOUDY    66  56  70 SE5       29.91F
REXBURG        CLOUDY    64  54  69 SE8       29.98R
$$

IDZ006-010-011-018-031-032-300700-
CENTRAL IDAHO MOUNTAINS


CITY           SKY/WX    TMP DP  RH WIND       PRES   REMARKS
MCCALL         MOCLDY    57  51  80 N5        29.93F
HAILEY         PTCLDY    68  41  37 N3        29.99S
STANLEY          N/A     62  39  42 SE7       30.03F
SALMON         MOCLDY    70  37  30 SE7       29.82S
CHALLIS        MOCLDY    74  37  26 S8        29.92F
$$

IDZ002-004-006-007-026-300700-
NORTHERN IDAHO


CITY           SKY/WX    TMP DP  RH WIND       PRES   REMARKS
LEWISTON       NOT AVBL
LOWELL           N/A     60  58  92 CALM      29.88F
COEUR D`ALENE  MOCLDY    63  52  67 S8        29.84F
MULLAN PASS    CLOUDY    49  41  74 VRB3      29.98F
$$


USA.gov is the U.S. government's official web portal to all federal, state and local government web resources and services.